QPF
0.02 0.01 0.01 0.00 0.01 0.03 0.03 0.03 0.03 0.03 0.03 0.03 0.03 0.02 0.02 0.02 0.02 0.02 0.03 0.03 0.04 0.05 0.05 0.06 0.08 0.09 0.08 0.07 0.06 0.05 0.05 0.04 0.04 0.05 0.06 0.05 0.03 0.03 0.03 0.04 0.04 0.03 0.04 0.03 0.03 0.02 0.02 0.04 0.05
0.01 0.00 0.00 0.00 0.01 0.03 0.04 0.04 0.04 0.04 0.03 0.03 0.04 0.04 0.02 0.02 0.02 0.01 0.03 0.04 0.04 0.05 0.06 0.07 0.13 0.12 0.09 0.06 0.06 0.05 0.06 0.06 0.06 0.06 0.05 0.06 0.05 0.04 0.04 0.07 0.04 0.03 0.03 0.02 0.02 0.02 0.03 0.04 0.04
0.00 0.00 0.00 0.00 0.01 0.02 0.03 0.04 0.04 0.03 0.02 0.02 0.03 0.03 0.03 0.04 0.03 0.02 0.03 0.03 0.03 0.04 0.07 0.13 0.15 0.09 0.06 0.05 0.05 0.06 0.09 0.12 0.08 0.09 0.08 0.08 0.08 0.06 0.06 0.08 0.05 0.03 0.03 0.03 0.02 0.03 0.04 0.03 0.03
0.00 0.00 0.00 0.00 0.01 0.01 0.02 0.03 0.01 0.01 0.01 0.01 0.02 0.01 0.02 0.04 0.04 0.03 0.03 0.03 0.02 0.02 0.03 0.07 0.09 0.05 0.03 0.03 0.04 0.04 0.05 0.06 0.07 0.10 0.12 0.11 0.08 0.06 0.05 0.07 0.05 0.03 0.03 0.02 0.02 0.03 0.03 0.02 0.02
0.00 0.00 0.00 0.00 0.01 0.01 0.01 0.01 0.00 0.01 0.01 0.02 0.01 0.02 0.02 0.03 0.03 0.03 0.03 0.03 0.03 0.03 0.02 0.05 0.06 0.03 0.03 0.03 0.03 0.03 0.03 0.03 0.04 0.05 0.06 0.06 0.06 0.06 0.06 0.06 0.04 0.02 0.01 0.01 0.02 0.02 0.02 0.01 0.01
0.00 0.00 0.01 0.00 0.00 0.01 0.02 0.00 0.00 0.00 0.01 0.00 0.01 0.02 0.02 0.02 0.01 0.01 0.02 0.02 0.03 0.04 0.03 0.03 0.04 0.03 0.03 0.02 0.02 0.03 0.03 0.02 0.02 0.03 0.03 0.02 0.02 0.04 0.07 0.06 0.02 0.02 0.02 0.02 0.01 0.01 0.02 0.02 0.02
0.00 0.00 0.01 0.00 0.00 0.01 0.01 0.00 0.00 0.00 0.00 0.00 0.00 0.01 0.01 0.01 0.00 0.01 0.01 0.01 0.01 0.02 0.03 0.02 0.02 0.02 0.02 0.02 0.03 0.04 0.05 0.04 0.02 0.02 0.03 0.03 0.03 0.04 0.05 0.03 0.03 0.02 0.02 0.02 0.02 0.02 0.02 0.02 0.03
0.00 0.00 0.00 0.00 0.01 0.00 0.01 0.00 0.00 0.00 0.00 0.00 0.00 0.00 0.01 0.01 0.00 0.00 0.00 0.01 0.01 0.01 0.02 0.01 0.01 0.02 0.02 0.02 0.01 0.03 0.04 0.05 0.04 0.04 0.03 0.03 0.04 0.04 0.03 0.03 0.03 0.02 0.03 0.02 0.02 0.02 0.02 0.02 0.02
0.00 0.00 0.00 0.00 0.01 0.00 0.00 0.00 0.00 0.00 0.00 0.00 0.00 0.00 0.00 0.00 0.00 0.01 0.01 0.00 0.01 0.02 0.02 0.01 0.01 0.01 0.01 0.01 0.01 0.02 0.03 0.03 0.03 0.04 0.04 0.03 0.02 0.03 0.03 0.02 0.04 0.03 0.03 0.02 0.02 0.02 0.02 0.01 0.01
0.00 0.00 0.00 0.00 0.00 0.00 0.00 0.00 0.00 0.00 0.00 0.00 0.00 0.00 0.00 0.01 0.01 0.01 0.01 0.01 0.01 0.02 0.02 0.01 0.00 0.00 0.00 0.00 0.00 0.01 0.01 0.03 0.02 0.02 0.03 0.03 0.03 0.03 0.03 0.03 0.04 0.04 0.03 0.03 0.02 0.02 0.01 0.00 0.00
0.00 0.00 0.00 0.00 0.00 0.00 0.00 0.00 0.00 0.00 0.00 0.00 0.00 0.00 0.00 0.01 0.01 0.00 0.01 0.01 0.01 0.01 0.01 0.00 0.00 0.00 0.00 0.01 0.01 0.01 0.02 0.03 0.02 0.02 0.02 0.02 0.02 0.02 0.02 0.02 0.02 0.02 0.02 0.01 0.01 0.00 0.00 0.00 0.01
0.00 0.00 0.00 0.00 0.00 0.00 0.00 0.00 0.00 0.00 0.00 0.00 0.00 0.00 0.00 0.00 0.00 0.01 0.01 0.01 0.01 0.01 0.01 0.00 0.00 0.00 0.00 0.00 0.00 0.01 0.01 0.02 0.02 0.02 0.01 0.01 0.01 0.02 0.02 0.01 0.02 0.02 0.01 0.01 0.01 0.01 0.00 0.00 0.01
0.00 0.00 0.00 0.00 0.00 0.00 0.00 0.00 0.00 0.00 0.00 0.00 0.00 0.00 0.00 0.00 0.00 0.01 0.01 0.01 0.01 0.01 0.02 0.01 0.00 0.00 0.00 0.00 0.00 0.00 0.00 0.01 0.02 0.01 0.01 0.01 0.01 0.01 0.01 0.01 0.01 0.01 0.01 0.01 0.01 0.01 0.00 0.00 0.00
0.00 0.00 0.00 0.00 0.00 0.00 0.00 0.00 0.00 0.00 0.00 0.00 0.00 0.00 0.00 0.00 0.00 0.01 0.01 0.01 0.00 0.00 0.01 0.01 0.00 0.00 0.00 0.00 0.00 0.00 0.00 0.01 0.01 0.01 0.01 0.01 0.01 0.01 0.00 0.01 0.01 0.01 0.01 0.00 0.00 0.00 0.00 0.00 0.00
0.00 0.00 0.00 0.00 0.00 0.00 0.00 0.01 0.01 0.01 0.00 0.00 0.00 0.01 0.00 0.00 0.00 0.01 0.01 0.01 0.00 0.00 0.00 0.00 0.00 0.00 0.00 0.00 0.00 0.00 0.00 0.01 0.02 0.01 0.01 0.01 0.00 0.00 0.00 0.00 0.01 0.01 0.00 0.00 0.00 0.00 0.00 0.00 0.00
0.00 0.00 0.00 0.00 0.00 0.00 0.00 0.00 0.01 0.01 0.01 0.01 0.00 0.01 0.01 0.01 0.01 0.01 0.02 0.01 0.00 0.01 0.01 0.00 0.00 0.00 0.00 0.01 0.01 0.01 0.01 0.02 0.04 0.03 0.02 0.01 0.00 0.00 0.00 0.00 0.01 0.01 0.00 0.00 0.00 0.00 0.00 0.00 0.00
0.00 0.00 0.00 0.00 0.00 0.00 0.00 0.01 0.01 0.00 0.01 0.01 0.01 0.01 0.01 0.01 0.01 0.01 0.02 0.01 0.01 0.02 0.02 0.01 0.01 0.01 0.01 0.01 0.01 0.01 0.01 0.01 0.03 0.02 0.01 0.01 0.01 0.00 0.00 0.00 0.00 0.00 0.00 0.00 0.00 0.01 0.01 0.01 0.01
0.00 0.00 0.00 0.00 0.00 0.00 0.00 0.01 0.01 0.01 0.02 0.02 0.01 0.01 0.01 0.00 0.00 0.01 0.00 0.01 0.01 0.02 0.02 0.01 0.01 0.01 0.00 0.00 0.00 0.01 0.01 0.01 0.01 0.01 0.01 0.01 0.01 0.01 0.01 0.00 0.00 0.00 0.00 0.00 0.01 0.01 0.01 0.01 0.01
0.00 0.00 0.00 0.00 0.00 0.00 0.00 0.00 0.00 0.01 0.01 0.01 0.01 0.01 0.01 0.01 0.00 0.00 0.00 0.00 0.01 0.01 0.01 0.01 0.01 0.01 0.01 0.01 0.01 0.01 0.01 0.01 0.01 0.01 0.01 0.01 0.01 0.01 0.01 0.01 0.00 0.00 0.01 0.01 0.01 0.01 0.01 0.01 0.00
0.00 0.00 0.00 0.00 0.00 0.00 0.00 0.00 0.00 0.00 0.00 0.01 0.00 0.01 0.01 0.00 0.00 0.00 0.00 0.00 0.01 0.01 0.01 0.01 0.01 0.01 0.01 0.01 0.02 0.01 0.01 0.01 0.01 0.01 0.01 0.01 0.01 0.01 0.01 0.01 0.00 0.00 0.00 0.01 0.01 0.01 0.01 0.01 0.00
0.00 0.00 0.00 0.00 0.00 0.00 0.00 0.00 0.00 0.00 0.00 0.00 0.00 0.00 0.00 0.00 0.00 0.00 0.00 0.00 0.00 0.01 0.01 0.01 0.01 0.02 0.01 0.01 0.01 0.01 0.01 0.01 0.02 0.01 0.02 0.02 0.02 0.02 0.01 0.01 0.01 0.01 0.01 0.01 0.01 0.01 0.01 0.01 0.01
0.00 0.00 0.00 0.00 0.00 0.00 0.00 0.00 0.00 0.00 0.00 0.00 0.00 0.00 0.01 0.00 0.00 0.00 0.00 0.01 0.01 0.00 0.01 0.01 0.01 0.01 0.01 0.01 0.01 0.01 0.01 0.01 0.01 0.02 0.02 0.03 0.03 0.04 0.02 0.01 0.01 0.01 0.01 0.02 0.01 0.01 0.01 0.02 0.01
0.00 0.00 0.00 0.00 0.00 0.00 0.00 0.00 0.00 0.00 0.00 0.00 0.00 0.00 0.01 0.01 0.00 0.01 0.00 0.01 0.01 0.01 0.01 0.01 0.01 0.01 0.01 0.01 0.01 0.01 0.01 0.01 0.01 0.01 0.01 0.01 0.01 0.02 0.02 0.01 0.01 0.01 0.01 0.02 0.01 0.01 0.01 0.01 0.01
0.00 0.00 0.00 0.00 0.01 0.00 0.00 0.00 0.00 0.00 0.00 0.00 0.00 0.01 0.01 0.01 0.01 0.00 0.00 0.00 0.01 0.01 0.01 0.02 0.02 0.01 0.01 0.01 0.01 0.01 0.01 0.01 0.01 0.01 0.01 0.01 0.01 0.01 0.01 0.01 0.02 0.02 0.01 0.01 0.01 0.01 0.01 0.00 0.00
0.00 0.01 0.01 0.01 0.01 0.00 0.00 0.00 0.00 0.00 0.00 0.00 0.00 0.00 0.00 0.01 0.01 0.00 0.00 0.00 0.00 0.00 0.01 0.01 0.01 0.01 0.01 0.00 0.00 0.00 0.00 0.00 0.01 0.01 0.02 0.01 0.01 0.01 0.01 0.01 0.01 0.01 0.01 0.01 0.01 0.01 0.00 0.00 0.00
0.00 0.00 0.01 0.01 0.00 0.00 0.00 0.00 0.00 0.00 0.00 0.00 0.00 0.00 0.00 0.00 0.00 0.00 0.00 0.01 0.01 0.00 0.01 0.01 0.01 0.01 0.01 0.01 0.00 0.00 0.00 0.00 0.01 0.01 0.02 0.01 0.01 0.01 0.02 0.02 0.01 0.01 0.01 0.01 0.01 0.01 0.01 0.00 0.00
0.00 0.00 0.00 0.00 0.00 0.00 0.01 0.00 0.00 0.00 0.00 0.00 0.00 0.00 0.01 0.01 0.01 0.01 0.00 0.01 0.01 0.00 0.00 0.01 0.01 0.01 0.01 0.01 0.00 0.00 0.00 0.00 0.01 0.01 0.01 0.01 0.01 0.01 0.01 0.01 0.01 0.01 0.01 0.01 0.01 0.01 0.01 0.00 0.00
0.00 0.00 0.00 0.00 0.01 0.01 0.01 0.00 0.01 0.01 0.01 0.01 0.00 0.00 0.00 0.01 0.01 0.01 0.01 0.01 0.00 0.00 0.01 0.01 0.01 0.01 0.01 0.01 0.00 0.00 0.00 0.00 0.00 0.01 0.01 0.01 0.00 0.00 0.00 0.00 0.00 0.00 0.00 0.01 0.01 0.01 0.01 0.00 0.00
0.00 0.00 0.00 0.00 0.00 0.00 0.00 0.00 0.01 0.01 0.01 0.00 0.00 0.01 0.01 0.01 0.00 0.01 0.01 0.01 0.01 0.01 0.01 0.01 0.01 0.01 0.01 0.01 0.00 0.00 0.00 0.00 0.00 0.00 0.00 0.01 0.01 0.00 0.00 0.00 0.00 0.00 0.00 0.01 0.01 0.01 0.01 0.00 0.00
0.01 0.00 0.00 0.01 0.00 0.00 0.00 0.00 0.00 0.01 0.01 0.00 0.00 0.01 0.01 0.01 0.00 0.00 0.00 0.00 0.00 0.01 0.01 0.01 0.01 0.01 0.01 0.01 0.01 0.01 0.00 0.00 0.00 0.00 0.00 0.00 0.00 0.00 0.00 0.00 0.00 0.00 0.00 0.01 0.00 0.00 0.00 0.00 0.00
MSLP
1012.50 1013.07 1013.85 1014.79 1015.80 1016.78 1017.65 1018.36 1018.87 1019.18 1019.33 1019.35 1019.29 1019.18 1019.03 1018.87 1018.67 1018.45 1018.19 1017.91 1017.62 1017.34 1017.09 1016.89 1016.75 1016.65 1016.58 1016.51 1016.42 1016.30 1016.15 1015.96 1015.76 1015.57 1015.39 1015.23 1015.10 1014.99 1014.88 1014.76 1014.63 1014.48 1014.32 1014.15 1014.00 1013.86 1013.75 1013.65 1013.56
1012.92 1013.62 1014.50 1015.50 1016.51 1017.45 1018.24 1018.85 1019.25 1019.47 1019.53 1019.48 1019.38 1019.24 1019.09 1018.92 1018.73 1018.50 1018.25 1017.97 1017.68 1017.41 1017.17 1016.98 1016.86 1016.78 1016.73 1016.69 1016.63 1016.54 1016.41 1016.24 1016.05 1015.86 1015.67 1015.50 1015.35 1015.21 1015.07 1014.93 1014.78 1014.63 1014.48 1014.33 1014.19 1014.06 1013.95 1013.84 1013.72
1013.44 1014.24 1015.18 1016.18 1017.14 1017.99 1018.67 1019.15 1019.43 1019.55 1019.54 1019.46 1019.34 1019.20 1019.06 1018.91 1018.73 1018.51 1018.26 1017.98 1017.70 1017.43 1017.21 1017.04 1016.94 1016.89 1016.87 1016.86 1016.84 1016.77 1016.67 1016.53 1016.36 1016.17 1015.98 1015.79 1015.61 1015.44 1015.27 1015.11 1014.95 1014.80 1014.66 1014.53 1014.41 1014.29 1014.17 1014.05 1013.90
1014.03 1014.89 1015.84 1016.79 1017.66 1018.38 1018.92 1019.26 1019.42 1019.45 1019.40 1019.30 1019.19 1019.08 1018.97 1018.84 1018.68 1018.48 1018.23 1017.96 1017.68 1017.42 1017.22 1017.08 1017.01 1017.00 1017.02 1017.04 1017.04 1017.01 1016.93 1016.81 1016.65 1016.47 1016.28 1016.08 1015.88 1015.69 1015.50 1015.33 1015.17 1015.02 1014.90 1014.78 1014.68 1014.57 1014.45 1014.30 1014.13
1014.64 1015.52 1016.43 1017.29 1018.03 1018.61 1018.99 1019.20 1019.26 1019.23 1019.15 1019.06 1018.98 1018.91 1018.84 1018.75 1018.61 1018.42 1018.17 1017.91 1017.64 1017.40 1017.23 1017.12 1017.08 1017.10 1017.15 1017.20 1017.22 1017.21 1017.15 1017.04 1016.90 1016.73 1016.54 1016.35 1016.15 1015.95 1015.76 1015.59 1015.43 1015.30 1015.19 1015.09 1015.00 1014.90 1014.77 1014.60 1014.40
1015.20 1016.06 1016.90 1017.65 1018.26 1018.68 1018.92 1019.01 1018.99 1018.92 1018.84 1018.78 1018.74 1018.73 1018.70 1018.64 1018.52 1018.34 1018.11 1017.85 1017.59 1017.38 1017.22 1017.14 1017.14 1017.18 1017.24 1017.30 1017.34 1017.33 1017.28 1017.19 1017.07 1016.92 1016.75 1016.57 1016.39 1016.21 1016.04 1015.87 1015.73 1015.62 1015.52 1015.44 1015.35 1015.25 1015.11 1014.92 1014.69
1015.68 1016.49 1017.25 1017.88 1018.35 1018.63 1018.75 1018.75 1018.68 1018.59 1018.53 1018.51 1018.53 1018.57 1018.59 1018.56 1018.46 1018.28 1018.05 1017.80 1017.55 1017.34 1017.21 1017.14 1017.15 1017.20 1017.27 1017.32 1017.35 1017.35 1017.30 1017.22 1017.12 1017.00 1016.87 1016.73 1016.59 1016.44 1016.30 1016.16 1016.04 1015.93 1015.85 1015.77 1015.69 1015.58 1015.42 1015.21 1014.95
1016.06 1016.81 1017.47 1017.99 1018.33 1018.50 1018.53 1018.47 1018.37 1018.29 1018.27 1018.30 1018.38 1018.46 1018.52 1018.52 1018.43 1018.26 1018.02 1017.76 1017.51 1017.31 1017.18 1017.11 1017.12 1017.15 1017.20 1017.24 1017.26 1017.24 1017.19 1017.12 1017.04 1016.96 1016.88 1016.80 1016.71 1016.61 1016.51 1016.40 1016.30 1016.21 1016.13 1016.05 1015.95 1015.83 1015.65 1015.43 1015.16
1016.35 1017.03 1017.60 1018.02 1018.26 1018.34 1018.31 1018.22 1018.12 1018.07 1018.08 1018.17 1018.30 1018.42 1018.51 1018.52 1018.44 1018.26 1018.02 1017.75 1017.49 1017.28 1017.14 1017.06 1017.04 1017.05 1017.06 1017.07 1017.06 1017.02 1016.97 1016.92 1016.87 1016.84 1016.81 1016.79 1016.76 1016.71 1016.65 1016.57 1016.49 1016.40 1016.31 1016.22 1016.11 1015.97 1015.79 1015.55 1015.27
1016.59 1017.20 1017.69 1018.02 1018.18 1018.21 1018.14 1018.04 1017.96 1017.94 1018.00 1018.12 1018.29 1018.44 1018.55 1018.57 1018.48 1018.30 1018.04 1017.76 1017.49 1017.26 1017.09 1016.98 1016.93 1016.90 1016.88 1016.85 1016.81 1016.75 1016.70 1016.66 1016.64 1016.65 1016.68 1016.71 1016.73 1016.73 1016.71 1016.65 1016.58 1016.49 1016.39 1016.28 1016.16 1016.00 1015.81 1015.57 1015.30
1016.80 1017.35 1017.77 1018.03 1018.14 1018.13 1018.05 1017.96 1017.90 1017.91 1018.00 1018.16 1018.34 1018.50 1018.61 1018.62 1018.53 1018.33 1018.07 1017.78 1017.49 1017.24 1017.05 1016.91 1016.82 1016.76 1016.70 1016.64 1016.57 1016.50 1016.45 1016.42 1016.43 1016.47 1016.53 1016.61 1016.67 1016.70 1016.70 1016.66 1016.58 1016.49 1016.38 1016.26 1016.12 1015.95 1015.76 1015.53 1015.28
1017.03 1017.53 1017.89 1018.10 1018.17 1018.15 1018.07 1017.99 1017.95 1017.98 1018.08 1018.24 1018.42 1018.57 1018.66 1018.66 1018.55 1018.34 1018.07 1017.77 1017.48 1017.22 1017.01 1016.85 1016.74 1016.65 1016.58 1016.49 1016.41 1016.34 1016.29 1016.27 1016.29 1016.35 1016.43 1016.52 1016.60 1016.65 1016.65 1016.61 1016.54 1016.44 1016.32 1016.18 1016.04 1015.87 1015.69 1015.47 1015.24
1017.30 1017.74 1018.05 1018.23 1018.28 1018.25 1018.18 1018.11 1018.08 1018.11 1018.20 1018.34 1018.49 1018.61 1018.67 1018.64 1018.51 1018.29 1018.02 1017.72 1017.43 1017.18 1016.97 1016.82 1016.71 1016.62 1016.54 1016.47 1016.39 1016.32 1016.27 1016.26 1016.28 1016.33 1016.41 1016.50 1016.57 1016.61 1016.61 1016.57 1016.49 1016.38 1016.26 1016.12 1015.98 1015.83 1015.65 1015.46 1015.25
1017.60 1018.00 1018.27 1018.41 1018.46 1018.43 1018.36 1018.30 1018.27 1018.28 1018.34 1018.43 1018.52 1018.59 1018.60 1018.52 1018.37 1018.15 1017.88 1017.60 1017.33 1017.10 1016.93 1016.80 1016.73 1016.67 1016.63 1016.58 1016.53 1016.48 1016.44 1016.42 1016.42 1016.45 1016.50 1016.56 1016.60 1016.62 1016.61 1016.55 1016.47 1016.37 1016.25 1016.13 1016.00 1015.86 1015.71 1015.53 1015.34
1017.92 1018.27 1018.50 1018.62 1018.66 1018.64 1018.58 1018.52 1018.48 1018.46 1018.46 1018.48 1018.50 1018.49 1018.43 1018.32 1018.14 1017.91 1017.66 1017.40 1017.17 1016.99 1016.87 1016.80 1016.78 1016.79 1016.80 1016.81 1016.80 1016.78 1016.76 1016.73 1016.71 1016.70 1016.70 1016.71 1016.71 1016.70 1016.66 1016.60 1016.52 1016.43 1016.33 1016.22 1016.11 1015.99 1015.86 1015.70 1015.52
1018.23 1018.52 1018.71 1018.82 1018.86 1018.85 1018.80 1018.74 1018.67 1018.60 1018.54 1018.48 1018.41 1018.32 1018.19 1018.02 1017.82 1017.59 1017.35 1017.14 1016.96 1016.84 1016.78 1016.79 1016.85 1016.94 1017.03 1017.11 1017.17 1017.19 1017.18 1017.14 1017.09 1017.03 1016.98 1016.93 1016.88 1016.83 1016.77 1016.71 1016.64 1016.56 1016.48 1016.40 1016.31 1016.21 1016.09 1015.95 1015.78
1018.49 1018.72 1018.88 1018.97 1019.02 1019.02 1018.99 1018.92 1018.83 1018.71 1018.57 1018.42 1018.26 1018.08 1017.88 1017.67 1017.44 1017.22 1017.01 1016.83 1016.71 1016.66 1016.68 1016.77 1016.91 1017.09 1017.28 1017.44 1017.56 1017.62 1017.63 1017.59 1017.51 1017.40 1017.29 1017.18 1017.09 1017.00 1016.93 1016.86 1016.80 1016.74 1016.67 1016.61 1016.54 1016.46 1016.36 1016.23 1016.07
1018.68 1018.86 1018.98 1019.07 1019.13 1019.16 1019.14 1019.06 1018.94 1018.77 1018.55 1018.31 1018.06 1017.79 1017.53 1017.28 1017.04 1016.83 1016.65 1016.53 1016.46 1016.47 1016.56 1016.73 1016.96 1017.22 1017.49 1017.73 1017.91 1018.02 1018.05 1018.00 1017.90 1017.75 1017.59 1017.44 1017.30 1017.18 1017.09 1017.02 1016.96 1016.92 1016.87 1016.82 1016.76 1016.69 1016.60 1016.48 1016.33
1018.80 1018.92 1019.03 1019.13 1019.21 1019.26 1019.25 1019.18 1019.02 1018.78 1018.49 1018.16 1017.82 1017.49 1017.18 1016.90 1016.67 1016.48 1016.33 1016.25 1016.24 1016.31 1016.46 1016.69 1016.98 1017.31 1017.64 1017.94 1018.18 1018.33 1018.38 1018.34 1018.22 1018.04 1017.85 1017.65 1017.48 1017.34 1017.24 1017.16 1017.11 1017.07 1017.02 1016.98 1016.92 1016.85 1016.76 1016.65 1016.53
1018.85 1018.94 1019.05 1019.17 1019.29 1019.36 1019.37 1019.28 1019.08 1018.78 1018.41 1017.99 1017.57 1017.18 1016.84 1016.55 1016.33 1016.17 1016.08 1016.05 1016.08 1016.19 1016.39 1016.65 1016.98 1017.35 1017.72 1018.06 1018.33 1018.51 1018.59 1018.55 1018.43 1018.25 1018.03 1017.82 1017.63 1017.47 1017.35 1017.27 1017.21 1017.15 1017.10 1017.04 1016.97 1016.90 1016.81 1016.73 1016.62
1018.86 1018.95 1019.08 1019.24 1019.40 1019.51 1019.52 1019.40 1019.15 1018.78 1018.32 1017.82 1017.32 1016.88 1016.51 1016.23 1016.04 1015.93 1015.89 1015.91 1015.99 1016.13 1016.34 1016.62 1016.96 1017.33 1017.72 1018.08 1018.37 1018.58 1018.67 1018.66 1018.55 1018.37 1018.15 1017.93 1017.73 1017.57 1017.44 1017.33 1017.25 1017.17 1017.09 1017.01 1016.92 1016.84 1016.76 1016.69 1016.63
1018.87 1018.99 1019.17 1019.39 1019.60 1019.73 1019.73 1019.58 1019.25 1018.79 1018.23 1017.64 1017.07 1016.59 1016.21 1015.95 1015.80 1015.75 1015.77 1015.84 1015.96 1016.13 1016.34 1016.61 1016.93 1017.29 1017.67 1018.02 1018.32 1018.54 1018.66 1018.67 1018.58 1018.42 1018.22 1018.01 1017.81 1017.64 1017.49 1017.37 1017.26 1017.14 1017.03 1016.91 1016.80 1016.70 1016.63 1016.59 1016.57
1018.90 1019.09 1019.35 1019.64 1019.90 1020.04 1020.02 1019.80 1019.39 1018.82 1018.15 1017.46 1016.83 1016.30 1015.92 1015.69 1015.60 1015.61 1015.69 1015.82 1015.97 1016.15 1016.36 1016.61 1016.90 1017.23 1017.58 1017.92 1018.22 1018.45 1018.59 1018.63 1018.57 1018.45 1018.28 1018.08 1017.89 1017.71 1017.55 1017.41 1017.26 1017.11 1016.96 1016.80 1016.67 1016.56 1016.49 1016.48 1016.51
1018.98 1019.26 1019.62 1019.99 1020.29 1020.43 1020.37 1020.08 1019.56 1018.86 1018.07 1017.29 1016.58 1016.02 1015.64 1015.44 1015.40 1015.48 1015.63 1015.81 1016.00 1016.20 1016.40 1016.63 1016.89 1017.18 1017.49 1017.81 1018.10 1018.34 1018.50 1018.57 1018.56 1018.48 1018.34 1018.17 1018.00 1017.82 1017.65 1017.48 1017.31 1017.12 1016.93 1016.75 1016.59 1016.47 1016.42 1016.43 1016.50
1019.10 1019.50 1019.96 1020.40 1020.73 1020.86 1020.74 1020.35 1019.72 1018.90 1017.99 1017.11 1016.34 1015.75 1015.37 1015.20 1015.21 1015.35 1015.57 1015.80 1016.03 1016.24 1016.44 1016.65 1016.88 1017.13 1017.42 1017.72 1018.01 1018.25 1018.44 1018.55 1018.58 1018.54 1018.44 1018.31 1018.16 1017.99 1017.82 1017.64 1017.44 1017.23 1017.02 1016.82 1016.64 1016.52 1016.48 1016.51 1016.62
1019.26 1019.77 1020.32 1020.81 1021.15 1021.25 1021.07 1020.58 1019.83 1018.90 1017.89 1016.93 1016.10 1015.48 1015.11 1014.97 1015.03 1015.22 1015.49 1015.77 1016.04 1016.27 1016.47 1016.67 1016.88 1017.12 1017.38 1017.68 1017.97 1018.23 1018.45 1018.60 1018.67 1018.67 1018.62 1018.52 1018.39 1018.25 1018.08 1017.90 1017.70 1017.49 1017.27 1017.06 1016.88 1016.77 1016.73 1016.78 1016.90
1019.44 1020.04 1020.65 1021.17 1021.49 1021.54 1021.28 1020.70 1019.86 1018.83 1017.75 1016.73 1015.87 1015.24 1014.88 1014.76 1014.86 1015.09 1015.40 1015.72 1016.01 1016.26 1016.48 1016.68 1016.89 1017.13 1017.40 1017.69 1018.00 1018.29 1018.54 1018.73 1018.84 1018.89 1018.88 1018.82 1018.73 1018.61 1018.46 1018.30 1018.11 1017.91 1017.70 1017.50 1017.34 1017.23 1017.20 1017.26 1017.39
1019.62 1020.27 1020.90 1021.40 1021.67 1021.66 1021.32 1020.66 1019.74 1018.66 1017.54 1016.50 1015.64 1015.02 1014.67 1014.58 1014.70 1014.96 1015.29 1015.63 1015.95 1016.22 1016.45 1016.67 1016.90 1017.16 1017.45 1017.77 1018.11 1018.43 1018.72 1018.95 1019.11 1019.21 1019.24 1019.22 1019.16 1019.08 1018.97 1018.83 1018.68 1018.51 1018.33 1018.15 1018.01 1017.92 1017.90 1017.95 1018.07
1019.78 1020.42 1021.00 1021.44 1021.64 1021.55 1021.13 1020.41 1019.46 1018.37 1017.26 1016.24 1015.41 1014.82 1014.50 1014.43 1014.56 1014.83 1015.16 1015.51 1015.83 1016.12 1016.38 1016.63 1016.90 1017.20 1017.54 1017.91 1018.29 1018.66 1019.00 1019.27 1019.48 1019.61 1019.69 1019.71 1019.70 1019.65 1019.59 1019.50 1019.39 1019.26 1019.12 1018.99 1018.87 1018.80 1018.78 1018.82 1018.92
1019.88 1020.45 1020.95 1021.28 1021.37 1021.19 1020.71 1019.96 1019.01 1017.95 1016.89 1015.93 1015.17 1014.63 1014.35 1014.29 1014.43 1014.68 1015.00 1015.34 1015.66 1015.96 1016.26 1016.55 1016.87 1017.24 1017.64 1018.08 1018.52 1018.95 1019.34 1019.67 1019.92 1020.10 1020.21 1020.28 1020.31 1020.31 1020.29 1020.26 1020.20 1020.12 1020.03 1019.94 1019.86 1019.80 1019.79 1019.82 1019.89
Thickness
5795 5798 5799 5791 5778 5765 5751 5752 5760 5760 5762 5767 5771 5770 5765 5760 5756 5748 5762 5771 5771 5772 5771 5770 5769 5769 5769 5770 5770 5770 5771 5771 5771 5771 5771 5771 5771 5771 5771 5771 5771 5771 5770 5770 5770 5770 5771 5771 5771
5796 5798 5793 5785 5768 5750 5744 5753 5755 5758 5763 5768 5769 5768 5765 5759 5763 5762 5765 5768 5770 5770 5770 5769 5766 5767 5767 5767 5768 5768 5768 5768 5769 5769 5769 5769 5769 5769 5769 5769 5769 5768 5768 5768 5768 5768 5768 5768 5768
5796 5795 5784 5774 5760 5750 5745 5752 5755 5760 5766 5767 5764 5765 5761 5756 5761 5763 5765 5768 5768 5768 5767 5765 5764 5764 5765 5765 5765 5766 5766 5766 5766 5767 5767 5767 5767 5767 5766 5766 5766 5766 5766 5766 5765 5765 5765 5765 5765
5793 5787 5780 5765 5748 5751 5754 5756 5760 5760 5762 5765 5764 5758 5759 5760 5762 5764 5766 5767 5767 5765 5764 5762 5761 5762 5762 5762 5763 5763 5763 5764 5764 5764 5764 5765 5764 5764 5764 5764 5764 5763 5763 5763 5763 5762 5762 5763 5762
5791 5780 5764 5752 5747 5752 5758 5761 5763 5759 5757 5760 5761 5753 5751 5758 5763 5764 5764 5764 5764 5763 5762 5760 5758 5759 5759 5760 5760 5761 5761 5761 5762 5762 5762 5762 5762 5762 5761 5761 5761 5760 5760 5760 5760 5760 5760 5759 5759
5779 5775 5756 5744 5744 5751 5757 5761 5762 5759 5758 5759 5758 5753 5749 5757 5759 5760 5761 5761 5761 5760 5759 5758 5756 5756 5756 5757 5757 5757 5758 5759 5759 5759 5759 5759 5759 5759 5758 5758 5757 5757 5757 5757 5757 5756 5756 5756 5756
5771 5763 5750 5746 5742 5746 5752 5761 5760 5758 5756 5757 5761 5752 5749 5754 5757 5760 5760 5759 5758 5758 5757 5757 5757 5755 5754 5754 5754 5754 5755 5755 5755 5755 5755 5755 5755 5755 5755 5754 5754 5754 5753 5754 5753 5753 5752 5752 5752
5775 5763 5748 5747 5742 5742 5754 5758 5759 5758 5755 5761 5762 5753 5748 5753 5757 5758 5757 5757 5756 5756 5756 5756 5755 5755 5755 5754 5751 5751 5751 5752 5752 5752 5752 5752 5752 5752 5752 5751 5750 5750 5750 5750 5750 5749 5749 5748 5748
5775 5757 5743 5744 5743 5745 5754 5754 5755 5761 5758 5757 5759 5758 5757 5756 5755 5753 5752 5752 5752 5753 5754 5754 5754 5753 5752 5752 5750 5750 5749 5749 5750 5750 5749 5750 5752 5752 5750 5748 5747 5747 5746 5746 5746 5746 5746 5745 5745
5766 5749 5743 5750 5754 5752 5752 5752 5753 5754 5751 5751 5751 5752 5754 5753 5751 5749 5748 5748 5748 5749 5751 5752 5752 5751 5751 5749 5749 5749 5749 5748 5749 5750 5749 5749 5749 5748 5747 5743 5743 5743 5743 5743 5742 5743 5744 5745 5746
5760 5747 5748 5751 5755 5755 5751 5750 5755 5751 5745 5750 5749 5748 5748 5748 5747 5747 5747 5746 5746 5747 5747 5749 5750 5749 5748 5747 5747 5746 5746 5746 5747 5747 5746 5745 5745 5745 5744 5744 5743 5742 5742 5742 5741 5742 5742 5743 5741
5754 5749 5751 5751 5753 5752 5750 5750 5749 5748 5748 5756 5756 5752 5748 5745 5745 5745 5744 5745 5745 5745 5745 5746 5747 5747 5746 5745 5744 5744 5744 5744 5744 5743 5743 5743 5742 5742 5741 5741 5740 5740 5739 5739 5739 5738 5739 5739 5739
5749 5746 5749 5751 5750 5751 5750 5747 5746 5745 5751 5754 5753 5749 5746 5746 5746 5746 5747 5745 5745 5743 5743 5743 5743 5744 5744 5742 5740 5741 5739 5740 5740 5738 5739 5739 5739 5739 5739 5738 5736 5736 5736 5736 5735 5736 5735 5735 5734
5747 5746 5746 5748 5748 5748 5744 5744 5744 5743 5749 5748 5746 5745 5745 5744 5744 5745 5744 5743 5743 5742 5742 5742 5742 5741 5740 5740 5738 5737 5736 5735 5736 5735 5735 5736 5736 5736 5735 5735 5732 5732 5732 5732 5733 5732 5731 5730 5728
5748 5741 5740 5742 5745 5745 5743 5735 5739 5745 5746 5743 5743 5743 5742 5742 5742 5742 5743 5743 5743 5742 5741 5740 5739 5739 5738 5737 5734 5733 5732 5733 5732 5731 5732 5732 5732 5732 5732 5731 5730 5729 5729 5729 5729 5728 5727 5726 5724
5742 5735 5728 5735 5740 5741 5736 5725 5738 5744 5742 5739 5741 5741 5739 5739 5741 5743 5743 5743 5742 5741 5739 5738 5737 5736 5735 5733 5730 5730 5729 5728 5728 5727 5727 5728 5728 5728 5728 5727 5726 5725 5724 5725 5724 5724 5723 5722 5721
5731 5725 5723 5729 5738 5738 5734 5727 5737 5741 5739 5737 5738 5739 5738 5738 5739 5741 5742 5742 5740 5739 5737 5735 5735 5733 5731 5729 5727 5726 5726 5724 5724 5723 5723 5724 5724 5724 5724 5723 5722 5722 5721 5721 5721 5720 5719 5717 5715
5722 5724 5723 5725 5734 5733 5729 5729 5736 5739 5737 5737 5738 5738 5738 5737 5738 5741 5741 5740 5739 5738 5736 5734 5732 5730 5728 5726 5725 5723 5722 5721 5720 5719 5719 5719 5719 5720 5719 5718 5719 5718 5717 5717 5717 5715 5714 5713 5712
5728 5724 5721 5726 5734 5729 5727 5728 5733 5736 5734 5734 5736 5737 5737 5738 5740 5741 5740 5739 5737 5735 5733 5731 5729 5728 5725 5723 5722 5720 5719 5718 5717 5716 5716 5715 5715 5715 5714 5715 5715 5713 5713 5713 5713 5711 5709 5709 5710
5724 5720 5720 5724 5729 5727 5726 5727 5733 5735 5733 5734 5735 5736 5737 5737 5738 5737 5736 5736 5735 5733 5731 5730 5727 5726 5723 5721 5721 5719 5717 5716 5714 5712 5711 5711 5711 5710 5710 5710 5710 5709 5708 5707 5708 5707 5706 5705 5706
5720 5719 5719 5718 5722 5726 5723 5723 5730 5735 5735 5735 5735 5736 5738 5737 5737 5736 5734 5733 5732 5731 5729 5727 5726 5724 5721 5719 5718 5715 5713 5713 5711 5709 5709 5707 5707 5706 5706 5706 5706 5705 5705 5704 5703 5703 5702 5701 5702
5714 5722 5719 5717 5715 5716 5718 5712 5726 5731 5729 5730 5732 5733 5735 5736 5737 5736 5733 5731 5730 5730 5728 5726 5724 5722 5720 5717 5715 5713 5710 5709 5708 5708 5706 5705 5704 5703 5702 5702 5702 5702 5702 5701 5701 5701 5700 5698 5697
5717 5719 5717 5715 5713 5712 5716 5712 5722 5729 5724 5727 5730 5732 5733 5736 5736 5734 5733 5731 5730 5729 5726 5725 5723 5720 5718 5715 5712 5711 5710 5709 5708 5706 5704 5703 5702 5700 5699 5699 5698 5699 5699 5698 5697 5697 5697 5697 5696
5716 5714 5713 5713 5711 5699 5709 5708 5712 5724 5724 5727 5731 5731 5732 5734 5734 5733 5733 5730 5728 5726 5724 5722 5719 5717 5715 5713 5711 5710 5708 5706 5705 5703 5702 5701 5700 5698 5697 5696 5696 5696 5696 5695 5694 5694 5693 5694 5693
5712 5705 5696 5694 5694 5698 5709 5705 5711 5723 5726 5726 5727 5729 5731 5732 5731 5730 5729 5726 5724 5722 5720 5719 5716 5714 5713 5712 5711 5709 5707 5705 5703 5702 5700 5699 5698 5696 5695 5695 5694 5693 5692 5692 5691 5691 5690 5690 5689
5706 5705 5691 5684 5688 5698 5702 5701 5714 5723 5724 5726 5727 5727 5727 5727 5728 5727 5726 5724 5722 5720 5718 5716 5715 5713 5711 5710 5709 5709 5707 5705 5703 5701 5700 5699 5698 5696 5693 5692 5691 5690 5689 5689 5688 5688 5687 5687 5686
5700 5700 5705 5696 5693 5689 5699 5705 5711 5718 5718 5718 5719 5720 5720 5722 5723 5723 5723 5721 5720 5718 5716 5715 5713 5711 5710 5709 5708 5706 5705 5703 5701 5700 5699 5697 5696 5694 5692 5690 5689 5687 5686 5686 5686 5685 5684 5683 5683
5702 5702 5695 5688 5678 5678 5690 5696 5701 5706 5708 5710 5712 5713 5715 5717 5719 5719 5718 5718 5717 5716 5715 5712 5711 5709 5708 5708 5706 5704 5702 5700 5699 5698 5696 5695 5694 5692 5690 5688 5687 5685 5684 5683 5682 5681 5680 5680 5678
5690 5690 5690 5689 5687 5677 5677 5691 5709 5706 5706 5706 5709 5710 5711 5712 5714 5715 5714 5714 5713 5713 5712 5710 5708 5707 5706 5705 5704 5702 5700 5699 5697 5696 5695 5693 5692 5690 5688 5687 5685 5683 5682 5681 5679 5679 5678 5677 5676
5690 5689 5687 5677 5678 5680 5678 5689 5710 5707 5706 5704 5704 5706 5708 5709 5711 5711 5711 5710 5709 5708 5708 5707 5706 5705 5703 5703 5702 5700 5699 5697 5695 5694 5693 5691 5689 5688 5687 5685 5683 5681 5680 5679 5677 5676 5675 5674 5673